J12 EFTP-EFTP

Flight info

Callsign J12
Flight time 0h 20m
Altitude 1500
Route TC
Aircraft F35/M-SDGIRUY/C

Departure

Time 2026-04-16 15:28
Airport Tampere-Pirkkala Airport (EFTP)

Arrival

Time 2026-04-16 15:48
Airport Tampere-Pirkkala Airport (EFTP)
Time Latitude Longitude Altitude Speed Heading
2026-04-16 15:18 61.41673 23.63194 385 ft 0 kts 21°
2026-04-16 15:20 61.41681 23.63200 384 ft 0 kts 21°
2026-04-16 15:21 61.41689 23.63206 384 ft 3 kts 20°
2026-04-16 15:21 61.41691 23.63207 384 ft 0 kts 18°
2026-04-16 15:22 61.41695 23.63207 384 ft 3 kts 356°
2026-04-16 15:22 61.41696 23.63207 384 ft 0 kts 354°
2026-04-16 15:23 61.41701 23.63201 384 ft 2 kts 332°
2026-04-16 15:23 61.41719 23.63145 381 ft 7 kts 296°
2026-04-16 15:24 61.41741 23.63050 378 ft 9 kts 296°
2026-04-16 15:24 61.41766 23.62941 374 ft 6 kts 296°
2026-04-16 15:24 61.41790 23.62877 373 ft 5 kts 324°
2026-04-16 15:24 61.41793 23.62872 373 ft 0 kts 327°
2026-04-16 15:25 61.41803 23.62863 373 ft 2 kts 338°
2026-04-16 15:25 61.41854 23.62831 371 ft 13 kts 334°
2026-04-16 15:26 61.41919 23.62689 368 ft 15 kts 284°
2026-04-16 15:26 61.41899 23.62550 370 ft 35 kts 245°
2026-04-16 15:26 61.41511 23.60877 436 ft 202 kts 243°
2026-04-16 15:26 61.40765 23.57569 820 ft 275 kts 253°
2026-04-16 15:27 61.40991 23.53960 981 ft 242 kts 308°
2026-04-16 15:27 61.42308 23.52288 922 ft 220 kts 358°
2026-04-16 15:27 61.43718 23.53244 785 ft 219 kts 46°
2026-04-16 15:27 61.44361 23.56094 745 ft 228 kts 73°
2026-04-16 15:28 61.44832 23.59374 803 ft 240 kts 74°
2026-04-16 15:28 61.45329 23.62726 1009 ft 246 kts 70°
2026-04-16 15:28 61.45901 23.66053 1021 ft 242 kts 69°
2026-04-16 15:28 61.46562 23.68965 1013 ft 199 kts 39°
2026-04-16 15:29 61.47804 23.68939 749 ft 196 kts 316°
2026-04-16 15:29 61.48075 23.66333 580 ft 191 kts 244°
2026-04-16 15:29 61.47006 23.64898 740 ft 194 kts 168°
2026-04-16 15:29 61.45563 23.66007 976 ft 255 kts 154°
2026-04-16 15:30 61.43999 23.67122 992 ft 215 kts 177°
2026-04-16 15:30 61.42815 23.66083 565 ft 178 kts 232°
2026-04-16 15:30 61.42135 23.63613 487 ft 217 kts 246°
2026-04-16 15:30 61.41519 23.60889 386 ft 181 kts 244°
2026-04-16 15:31 61.40976 23.58507 598 ft 186 kts 245°
2026-04-16 15:31 61.40111 23.56394 702 ft 206 kts 194°
2026-04-16 15:31 61.38578 23.57043 1114 ft 264 kts 136°
2026-04-16 15:31 61.37946 23.60605 2029 ft 271 kts 79°
2026-04-16 15:32 61.38377 23.64503 2000 ft 273 kts 76°
2026-04-16 15:32 61.38795 23.68147 2077 ft 249 kts 75°
2026-04-16 15:32 61.39223 23.71483 1735 ft 219 kts 65°
2026-04-16 15:32 61.40227 23.73260 1412 ft 182 kts 15°
2026-04-16 15:33 61.41519 23.72863 1159 ft 208 kts 332°
2026-04-16 15:33 61.42670 23.70827 1110 ft 213 kts 312°
2026-04-16 15:33 61.43071 23.68127 921 ft 202 kts 265°
2026-04-16 15:33 61.42536 23.65329 666 ft 219 kts 244°
2026-04-16 15:34 61.41928 23.62683 402 ft 177 kts 243°
2026-04-16 15:34 61.41400 23.60398 492 ft 216 kts 244°
2026-04-16 15:34 61.40648 23.57078 1031 ft 283 kts 245°
2026-04-16 15:34 61.39729 23.53090 1567 ft 325 kts 243°
2026-04-16 15:35 61.38669 23.48669 1992 ft 346 kts 243°
2026-04-16 15:35 61.37779 23.44357 1960 ft 298 kts 262°
2026-04-16 15:35 61.37929 23.40450 1940 ft 249 kts 282°
2026-04-16 15:35 61.38123 23.38001 2014 ft 211 kts 282°
2026-04-16 15:36 61.38315 23.35233 1785 ft 179 kts 282°
2026-04-16 15:36 61.38226 23.32692 1467 ft 185 kts 234°
2026-04-16 15:36 61.36988 23.31375 1472 ft 224 kts 173°
2026-04-16 15:36 61.35751 23.32821 1733 ft 207 kts 120°
2026-04-16 15:37 61.35549 23.35509 2030 ft 190 kts 85°
2026-04-16 15:37 61.36066 23.37854 2127 ft 187 kts 52°
2026-04-16 15:37 61.36733 23.40214 2350 ft 206 kts 65°
2026-04-16 15:37 61.37365 23.42968 2118 ft 197 kts 64°
2026-04-16 15:38 61.37903 23.45343 1754 ft 167 kts 65°
2026-04-16 15:38 61.38462 23.47800 1439 ft 208 kts 63°
2026-04-16 15:38 61.39137 23.50597 1145 ft 206 kts 63°
2026-04-16 15:38 61.39752 23.53247 896 ft 212 kts 64°
2026-04-16 15:39 61.40440 23.56188 685 ft 221 kts 64°
2026-04-16 15:39 61.41030 23.58766 398 ft 173 kts 63°
2026-04-16 15:39 61.41498 23.60796 412 ft 166 kts 64°
2026-04-16 15:39 61.42060 23.63297 743 ft 202 kts 72°
2026-04-16 15:40 61.41880 23.66013 1279 ft 204 kts 121°
2026-04-16 15:40 61.40713 23.67873 1281 ft 222 kts 168°
2026-04-16 15:40 61.39255 23.66962 1360 ft 232 kts 223°
2026-04-16 15:40 61.38302 23.64191 1186 ft 237 kts 239°
2026-04-16 15:41 61.37446 23.61248 1037 ft 240 kts 238°
2026-04-16 15:41 61.36615 23.58263 1018 ft 237 kts 242°
2026-04-16 15:41 61.35992 23.55091 823 ft 238 kts 267°
2026-04-16 15:41 61.36449 23.52041 744 ft 221 kts 311°
2026-04-16 15:42 61.37686 23.50426 856 ft 206 kts 352°
2026-04-16 15:42 61.39033 23.50911 913 ft 199 kts 37°
2026-04-16 15:42 61.39754 23.53267 784 ft 198 kts 64°
2026-04-16 15:42 61.40350 23.55812 606 ft 190 kts 65°
2026-04-16 15:43 61.40911 23.58252 423 ft 183 kts 64°
2026-04-16 15:43 61.41437 23.60537 462 ft 208 kts 64°
2026-04-16 15:43 61.42072 23.63508 1208 ft 227 kts 78°
2026-04-16 15:43 61.41698 23.66636 1675 ft 237 kts 130°
2026-04-16 15:44 61.40212 23.68282 1982 ft 257 kts 172°
2026-04-16 15:44 61.38480 23.67164 2121 ft 281 kts 218°
2026-04-16 15:44 61.37378 23.63893 1728 ft 262 kts 242°
2026-04-16 15:44 61.36575 23.60724 1752 ft 237 kts 243°
2026-04-16 15:45 61.35851 23.57733 1596 ft 226 kts 243°
2026-04-16 15:45 61.35135 23.54980 1478 ft 214 kts 239°
2026-04-16 15:45 61.34408 23.52139 1324 ft 242 kts 254°
2026-04-16 15:45 61.34482 23.48674 1273 ft 242 kts 297°
2026-04-16 15:46 61.35566 23.46123 1283 ft 235 kts 336°
2026-04-16 15:46 61.37121 23.45691 1207 ft 224 kts 22°
2026-04-16 15:46 61.38322 23.47293 1215 ft 184 kts 56°
2026-04-16 15:46 61.38901 23.49555 1058 ft 176 kts 65°
2026-04-16 15:47 61.39484 23.52050 907 ft 209 kts 65°
2026-04-16 15:47 61.40135 23.54857 726 ft 208 kts 65°
2026-04-16 15:47 61.40732 23.57444 489 ft 189 kts 65°
2026-04-16 15:47 61.41252 23.59727 387 ft 151 kts 65°
2026-04-16 15:48 61.41563 23.61089 384 ft 70 kts 65°
2026-04-16 15:48 61.41643 23.61635 383 ft 22 kts 101°
2026-04-16 15:48 61.41629 23.61799 380 ft 0 kts 101°
2026-04-16 15:49 61.41628 23.61810 380 ft 7 kts 101°
2026-04-16 15:50 61.41605 23.62070 373 ft 29 kts 101°
2026-04-16 15:50 61.41575 23.62424 377 ft 11 kts 102°
2026-04-16 15:50 61.41552 23.62567 381 ft 13 kts 116°
2026-04-16 15:50 61.41543 23.62726 383 ft 12 kts 32°
2026-04-16 15:51 61.41601 23.62778 381 ft 6 kts 34°
2026-04-16 15:51 61.41610 23.62874 381 ft 8 kts 91°
2026-04-16 15:51 61.41609 23.63016 383 ft 11 kts 93°
2026-04-16 15:51 61.41604 23.63124 385 ft 6 kts 58°
2026-04-16 15:52 61.41628 23.63154 385 ft 0 kts 24°